Hourly Weather Godzieszowa

Today, 18 May, Tuesday

Time Temperature Precipitation Wind Pressure Humidity
00:00 +10°C° 0.1 mm 4 mps 740 mmHg 92%
01:00 +8°C° 0.1 mm 5 mps 740 mmHg 93%
02:00 +8°C° 0 mm 5 mps 741 mmHg 93%
03:00 +8°C° 0 mm 5 mps 741 mmHg 93%
04:00 +7°C° 0 mm 5 mps 741 mmHg 92%
05:00 +8°C° 0 mm 5 mps 741 mmHg 91%
06:00 +8°C° 0 mm 5 mps 742 mmHg 89%
07:00 +9°C° 0 mm 5 mps 742 mmHg 87%
08:00 +10°C° 0.1 mm 5 mps 742 mmHg 84%
09:00 +12°C° 0.1 mm 5 mps 742 mmHg 81%
10:00 +11°C° 0.1 mm 6 mps 742 mmHg 78%
11:00 +13°C° 0.2 mm 6 mps 742 mmHg 77%
12:00 +13°C° 0.2 mm 6 mps 743 mmHg 76%
13:00 +14°C° 0.2 mm 7 mps 743 mmHg 74%
14:00 +14°C° 0.1 mm 6 mps 743 mmHg 73%
15:00 +14°C° 0.1 mm 6 mps 743 mmHg 72%
16:00 +15°C° 0.1 mm 5 mps 743 mmHg 70%
17:00 +14°C° 0.1 mm 4 mps 743 mmHg 74%
18:00 +13°C° 0.1 mm 4 mps 743 mmHg 78%
19:00 +12°C° 0.1 mm 3 mps 743 mmHg 82%
20:00 +10°C° 0 mm 3 mps 743 mmHg 86%
21:00 +9°C° 0 mm 3 mps 744 mmHg 89%
22:00 +8°C° 0 mm 3 mps 744 mmHg 93%
23:00 +8°C° 0 mm 3 mps 744 mmHg 94%

Tomorrow, 19 May, Wednesday

Time Temperature Precipitation Wind Pressure Humidity
00:00 +8°C° 0 mm 3 mps 744 mmHg 95%
01:00 +7°C° 0 mm 4 mps 744 mmHg 95%
02:00 +6°C° 0 mm 4 mps 744 mmHg 95%
03:00 +6°C° 0 mm 4 mps 745 mmHg 95%
04:00 +6°C° 0 mm 4 mps 745 mmHg 95%
05:00 +7°C° 0 mm 4 mps 745 mmHg 92%
06:00 +8°C° 0 mm 4 mps 745 mmHg 88%
07:00 +10°C° 0 mm 4 mps 745 mmHg 85%
08:00 +10°C° 0.2 mm 4 mps 745 mmHg 83%
09:00 +10°C° 0.2 mm 5 mps 746 mmHg 81%
10:00 +12°C° 0.2 mm 5 mps 746 mmHg 80%
11:00 +12°C° 0.3 mm 5 mps 746 mmHg 77%
12:00 +13°C° 0.3 mm 5 mps 746 mmHg 74%
13:00 +13°C° 0.3 mm 6 mps 746 mmHg 71%
14:00 +13°C° 0.2 mm 6 mps 746 mmHg 74%
15:00 +11°C° 0.2 mm 6 mps 746 mmHg 76%
16:00 +11°C° 0.2 mm 6 mps 746 mmHg 79%
17:00 +10°C° 0 mm 5 mps 746 mmHg 81%
18:00 +9°C° 0 mm 5 mps 746 mmHg 83%
19:00 +8°C° 0 mm 4 mps 747 mmHg 85%
20:00 +9°C° 0 mm 3 mps 747 mmHg 86%
21:00 +9°C° 0 mm 3 mps 747 mmHg 87%
22:00 +8°C° 0 mm 2 mps 747 mmHg 89%
23:00 +8°C° 0 mm 2 mps 747 mmHg 88%

Day after tomorrow, 20 May, Thursday

Time Temperature Precipitation Wind Pressure Humidity
00:00 +8°C° 0 mm 2 mps 747 mmHg 87%
01:00 +8°C° 0 mm 2 mps 747 mmHg 87%
02:00 +8°C° 0 mm 3 mps 747 mmHg 88%
03:00 +7°C° 0 mm 3 mps 748 mmHg 88%
04:00 +7°C° 0 mm 3 mps 748 mmHg 89%
05:00 +8°C° 0 mm 3 mps 748 mmHg 86%
06:00 +8°C° 0 mm 3 mps 749 mmHg 84%
07:00 +9°C° 0 mm 3 mps 749 mmHg 82%
08:00 +11°C° 0.1 mm 3 mps 749 mmHg 77%
09:00 +12°C° 0.1 mm 4 mps 749 mmHg 72%
10:00 +14°C° 0.1 mm 4 mps 749 mmHg 67%
11:00 +13°C° 0.4 mm 5 mps 749 mmHg 70%
12:00 +13°C° 0.4 mm 5 mps 749 mmHg 72%
13:00 +13°C° 0.4 mm 6 mps 749 mmHg 75%
14:00 +13°C° 0.1 mm 6 mps 749 mmHg 72%
15:00 +13°C° 0.1 mm 6 mps 749 mmHg 69%
16:00 +14°C° 0.1 mm 6 mps 749 mmHg 66%
17:00 +13°C° 0 mm 5 mps 750 mmHg 70%
18:00 +12°C° 0 mm 4 mps 750 mmHg 73%
19:00 +11°C° 0 mm 4 mps 750 mmHg 77%
20:00 +9°C° 0 mm 3 mps 750 mmHg 81%
21:00 +8°C° 0 mm 3 mps 751 mmHg 85%
22:00 +7°C° 0 mm 3 mps 751 mmHg 89%
23:00 +5°C° 0 mm 3 mps 751 mmHg 91%

21 May, Friday

Time Temperature Precipitation Wind Pressure Humidity
00:00 +5°C° 0 mm 3 mps 751 mmHg 92%
01:00 +4°C° 0 mm 3 mps 751 mmHg 93%
02:00 +5°C° 0 mm 2 mps 751 mmHg 94%
03:00 +5°C° 0 mm 2 mps 751 mmHg 94%
04:00 +5°C° 0 mm 2 mps 751 mmHg 95%
05:00 +6°C° 0 mm 2 mps 751 mmHg 90%
06:00 +8°C° 0 mm 3 mps 751 mmHg 85%
07:00 +9°C° 0 mm 3 mps 751 mmHg 80%
08:00 +11°C° 0.1 mm 3 mps 751 mmHg 76%
09:00 +12°C° 0.1 mm 3 mps 750 mmHg 72%
10:00 +13°C° 0.1 mm 3 mps 750 mmHg 68%
11:00 +14°C° 0.2 mm 3 mps 750 mmHg 63%
12:00 +16°C° 0.2 mm 3 mps 749 mmHg 59%
13:00 +17°C° 0.2 mm 3 mps 749 mmHg 54%
14:00 +17°C° 0 mm 3 mps 748 mmHg 54%
15:00 +17°C° 0 mm 2 mps 748 mmHg 54%
16:00 +17°C° 0 mm 2 mps 747 mmHg 54%
17:00 +16°C° 0 mm 2 mps 747 mmHg 60%
18:00 +15°C° 0 mm 2 mps 747 mmHg 67%
19:00 +14°C° 0 mm 2 mps 746 mmHg 73%
20:00 +13°C° 0 mm 2 mps 746 mmHg 74%
21:00 +13°C° 0 mm 2 mps 746 mmHg 75%
22:00 +11°C° 0 mm 3 mps 745 mmHg 76%
23:00 +10°C° 0 mm 3 mps 745 mmHg 76%

22 May, Saturday

Time Temperature Precipitation Wind Pressure Humidity
00:00 +10°C° 0 mm 3 mps 744 mmHg 77%
01:00 +9°C° 0 mm 3 mps 744 mmHg 78%
02:00 +9°C° 0 mm 3 mps 743 mmHg 78%
03:00 +9°C° 0 mm 3 mps 743 mmHg 78%
04:00 +8°C° 0 mm 4 mps 742 mmHg 79%
05:00 +10°C° 0 mm 4 mps 742 mmHg 77%
06:00 +11°C° 0 mm 4 mps 742 mmHg 75%
07:00 +13°C° 0 mm 4 mps 742 mmHg 73%
08:00 +14°C° 0 mm 5 mps 743 mmHg 70%
09:00 +15°C° 0 mm 6 mps 743 mmHg 67%
10:00 +16°C° 0 mm 6 mps 743 mmHg 64%
11:00 +16°C° 0.2 mm 6 mps 743 mmHg 67%
12:00 +15°C° 0.2 mm 6 mps 743 mmHg 70%
13:00 +15°C° 0.2 mm 6 mps 743 mmHg 73%
14:00 +14°C° 0.5 mm 5 mps 743 mmHg 75%
15:00 +13°C° 0.5 mm 4 mps 743 mmHg 78%
16:00 +13°C° 0.5 mm 3 mps 743 mmHg 80%
17:00 +12°C° 0.3 mm 3 mps 743 mmHg 80%
18:00 +12°C° 0.3 mm 2 mps 743 mmHg 80%
19:00 +12°C° 0.3 mm 2 mps 744 mmHg 79%
20:00 +10°C° 0 mm 2 mps 744 mmHg 81%
21:00 +9°C° 0 mm 3 mps 744 mmHg 82%
22:00 +8°C° 0 mm 3 mps 744 mmHg 84%
23:00 +7°C° 0 mm 3 mps 744 mmHg 85%

23 May, Sunday

Time Temperature Precipitation Wind Pressure Humidity
00:00 +7°C° 0 mm 3 mps 744 mmHg 86%
01:00 +5°C° 0 mm 3 mps 744 mmHg 87%
02:00 +5°C° 0 mm 3 mps 744 mmHg 87%
03:00 +5°C° 0 mm 3 mps 744 mmHg 88%
04:00 +5°C° 0 mm 3 mps 744 mmHg 89%
05:00 +8°C° 0 mm 3 mps 744 mmHg 84%
06:00 +9°C° 0 mm 3 mps 744 mmHg 79%
07:00 +11°C° 0 mm 3 mps 744 mmHg 74%
08:00 +12°C° 0 mm 4 mps 744 mmHg 69%
09:00 +14°C° 0 mm 4 mps 745 mmHg 64%
10:00 +15°C° 0 mm 5 mps 745 mmHg 59%
11:00 +15°C° 0.2 mm 4 mps 745 mmHg 61%
12:00 +15°C° 0.2 mm 4 mps 745 mmHg 62%
13:00 +15°C° 0.2 mm 4 mps 745 mmHg 64%
14:00 +16°C° 0.4 mm 3 mps 745 mmHg 63%
15:00 +16°C° 0.4 mm 3 mps 745 mmHg 63%
16:00 +16°C° 0.4 mm 3 mps 745 mmHg 62%
17:00 +14°C° 0.1 mm 3 mps 745 mmHg 67%
18:00 +13°C° 0.1 mm 3 mps 746 mmHg 72%
19:00 +13°C° 0.1 mm 2 mps 746 mmHg 76%
20:00 +12°C° 0 mm 2 mps 747 mmHg 78%
21:00 +10°C° 0 mm 3 mps 747 mmHg 80%
22:00 +9°C° 0 mm 3 mps 748 mmHg 82%
23:00 +8°C° 0 mm 3 mps 748 mmHg 85%
Show more